This demonstration page uses our WeatherBlox Daily Observations layout. Learn more.

Left ArrowRight Arrow

Hourly Observations for March 1, 2017

Temp ( °F °C ) Dew Point ( °F °C ) Humidity (%) Winds ( mph kmh ) Pressure ( in mb ) Visibility ( mi km ) Precip ( " mm )
12:53 am 00:53 Cloudy 64 17.8 61 16.1 90 90 S 5 7 29.71 1006 10 16 N/A
1:09 am 01:09 Cloudy with Thunderstorms 64 17.8 61 16.1 90 90 S 9 15 29.71 1006 5 8 0.02 0.51
1:22 am 01:22 Cloudy with Thunderstorms 63 17.2 62 16.7 97 97 VRB 3 6 29.68 1005 2 3 0.09 2.29
1:26 am 01:26 Cloudy with Strong Thunderstorms 62 16.7 62 16.7 100 100 VRB 5 7 29.74 1007 2 2 0.13 3.30
1:31 am 01:31 Cloudy with Strong Thunderstorms 63 17.2 62 16.7 97 97 W 21 33 29.80 1009 1 2 0.27 6.86
1:37 am 01:37 Cloudy with Strong Thunderstorms 60 15.6 59 15 96 96 W 16 26 29.74 1007 1 1 0.66 16.76
1:46 am 01:46 Cloudy with Thunderstorms 58 14.4 58 14.4 100 100 WSW 7 11 29.71 1006 1 2 0.80 20.32
1:50 am 01:50 Cloudy with Thunderstorms 57 14 57 14 100 100 SSW 5 7 29.68 1005 2 3 0.81 20.57
1:53 am 01:53 Cloudy with Thunderstorms 58 14.4 58 14.4 100 100 SSW 7 11 29.70 1006 3 5 0.81 20.57
2:01 am 02:01 Cloudy with Thunderstorms 58 14.4 57 13.9 97 97 VRB 6 9 29.71 1006 3 5 0.03 0.76
2:49 am 02:49 Cloudy with Nearby Thunderstorms 61 16 57 14 88 88 WSW 9 15 29.65 1004 10 16 0.11 2.79
2:53 am 02:53 Cloudy with Nearby Thunderstorms 61 16.1 58 14.4 90 90 SW 10 17 29.64 1004 10 16 0.11 2.79
3:03 am 03:03 Cloudy with Rain 61 16.1 59 15 93 93 SSW 14 22 29.65 1004 7 11 0.01 0.25
3:14 am 03:14 Cloudy with Nearby Thunderstorms 62 16.7 59 15 90 90 SW 14 22 29.65 1004 2 3 0.04 1.02
3:28 am 03:28 Cloudy with Nearby Thunderstorms 62 16.7 60 15.6 93 93 SSW 15 24 29.65 1004 3 5 0.09 2.29
3:35 am 03:35 Cloudy with Rain 61 16.1 60 15.6 97 97 S 10 17 29.62 1003 4 6 0.11 2.79
3:42 am 03:42 Cloudy with Nearby Thunderstorms 62 16.7 60 15.6 93 93 SSW 9 15 29.62 1003 5 8 0.12 3.05
3:53 am 03:53 Cloudy with Light Rain 62 16.7 59 15 90 90 SSW 8 13 29.60 1003 10 16 0.12 3.05
4:53 am 04:53 Mostly Cloudy 59 15 57 13.9 93 93 SW 6 9 29.59 1002 10 16 N/A
5:36 am 05:36 Cloudy 61 16.1 59 15 93 93 SSW 7 11 29.59 1002 10 16 N/A
5:53 am 05:53 Cloudy 59 15 53 11.7 81 81 N 18 30 29.60 1002 10 16 N/A
6:16 am 06:16 Cloudy with Nearby Thunderstorms 56 13.3 52 11.1 87 87 NW 13 20 29.59 1002 10 16 N/A
6:33 am 06:33 Cloudy with Nearby Thunderstorms 55 12.8 53 11.7 93 93 ESE 9 15 29.56 1001 6 10 0.03 0.76
6:46 am 06:46 Cloudy with Thunderstorms 55 12.8 53 11.7 93 93 NNW 12 19 29.62 1003 9 14 0.07 1.78
6:53 am 06:53 Cloudy with Strong Thunderstorms 54 12.2 53 11.7 97 97 WSW 13 20 29.66 1005 2 2 0.30 7.62
7:01 am 07:01 Cloudy with Thunderstorms 52 11.1 52 11.1 100 100 SW 7 11 29.68 1005 1 1 0.13 3.30
7:05 am 07:05 Cloudy with Thunderstorms 52 11.1 52 11.1 100 100 WSW 7 11 29.68 1005 2 3 0.14 3.56
7:12 am 07:12 Cloudy with Thunderstorms 52 11.1 52 11.1 100 100 WNW 8 13 29.65 1004 5 8 0.15 3.81
7:18 am 07:18 Cloudy with Rain 52 11.1 52 11.1 100 100 WNW 7 11 29.65 1004 5 8 0.17 4.32
7:27 am 07:27 Cloudy with Thunderstorms 53 11.7 53 11.7 100 100 W 3 6 29.65 1004 4 6 0.19 4.83
7:36 am 07:36 Cloudy with Rain 53 11.7 53 11.7 100 100 WSW 5 7 29.68 1005 3 4 0.23 5.84
7:45 am 07:45 Cloudy with Light Rain 53 11.7 52 11.1 96 96 W 5 7 29.65 1004 4 6 0.24 6.10
7:53 am 07:53 Cloudy with Light Rain 53 11.7 53 11.7 100 100 WSW 6 9 29.67 1005 4 6 0.25 6.35
8:19 am 08:19 Cloudy with Nearby Thunderstorms 53 11.7 53 11.7 100 100 SW 6 9 29.71 1006 3 5 0.04 1.02
8:26 am 08:26 Cloudy with Nearby Thunderstorms 53 11.7 53 11.7 100 100 SW 7 11 29.71 1006 2 3 0.06 1.52
8:32 am 08:32 Cloudy with Light Rain 53 11.7 53 11.7 100 100 SW 6 9 29.71 1006 3 5 0.07 1.78
8:53 am 08:53 Cloudy with Rain 54 12.2 52 11.1 93 93 SW 6 9 29.71 1006 3 5 0.11 2.79
9:04 am 09:04 Cloudy with Nearby Thunderstorms 53 11.7 52 11.1 96 96 VRB 6 9 29.68 1005 3 5 0.03 0.76
9:19 am 09:19 Cloudy with Light Rain 53 11.7 52 11.1 96 96 S 7 11 29.62 1003 7 11 0.04 1.02
9:53 am 09:53 Sunny 54 12.2 53 11.7 97 97 VRB 5 7 29.61 1003 10 16 0.04 1.02
10:53 am 10:53 Sunny 57 13.9 53 11.7 87 87 SW 8 13 29.60 1002 10 16 N/A
11:34 am 11:34 Mostly Cloudy 59 15 52 11.1 78 78 SW 17 28 29.62 1003 10 16 N/A
11:53 am 11:53 Cloudy 60 15.6 53 11.7 78 78 WSW 15 24 29.61 1003 10 16 N/A
12:53 pm 12:53 Cloudy 59 15 51 10.6 75 75 WSW 21 33 29.61 1003 10 16 N/A
1:53 pm 13:53 Mostly Cloudy 60 15.6 49 9.4 67 67 WSW 26 43 29.62 1003 10 16 N/A
2:53 pm 14:53 Cloudy 57 13.9 46 7.8 67 67 W 21 33 29.66 1004 10 16 N/A
3:53 pm 15:53 Cloudy 52 11.1 42 5.6 69 69 WNW 20 31 29.72 1007 10 16 N/A
4:44 pm 16:44 Cloudy 49 9.4 40 4.4 71 71 W 18 30 29.80 1009 10 16 N/A
4:53 pm 16:53 Cloudy 49 9.4 40 4.4 71 71 W 16 26 29.77 1008 10 16 N/A
5:07 pm 17:07 Cloudy 49 9.4 40 4.4 71 71 W 17 28 29.80 1009 10 16 N/A
5:53 pm 17:53 Mostly Cloudy 47 8.3 37 2.8 69 69 W 23 37 29.82 1010 10 16 N/A
6:53 pm 18:53 Cloudy 46 7.8 31 -0.6 56 56 W 23 37 29.87 1011 10 16 N/A
7:53 pm 19:53 Cloudy 45 7.2 32 undefined 61 61 W 20 31 29.89 1012 10 16 N/A
8:53 pm 20:53 Mostly Cloudy 44 6.7 30 -1.1 58 58 W 20 31 29.94 1014 10 16 N/A
9:53 pm 21:53 Cloudy 43 6.1 30 -1.1 60 60 W 24 39 29.99 1016 10 16 N/A
10:53 pm 22:53 Cloudy 40 4.4 30 -1.1 68 68 WNW 20 31 30.02 1017 10 16 N/A
11:53 pm 23:53 Cloudy 40 4.4 29 -1.7 65 65 WNW 17 28 30.05 1018 10 16 N/A

Powered by AerisWeather